| time (UTC) | temp F | wind direction | speed MPH | gust MPH | rain 1hr in | rain 24hr in | rain mn in | humidity % | barometer mb |
| 20260504141004 | 58 | 242 | 3.0 | 9.0 | 0.00 | 0.00 | 0.00 | 60 | 1007.0 |
| 20260504130504 | 55 | 229 | 3.0 | 10.0 | 0.00 | 0.00 | 0.00 | 61 | 1007.5 |
| 20260504110504 | 49 | 204 | 1.0 | 6.0 | 0.00 | 0.00 | 0.00 | 68 | 1007.1 |
| 20260504081004 | 50 | 202 | 3.0 | 5.0 | 0.00 | 0.00 | 0.00 | 62 | 1007.9 |
| 20260504080504 | 50 | 212 | 3.0 | 6.0 | 0.00 | 0.00 | 0.00 | 62 | 1007.9 |
| 20260504050004 | 50 | 227 | 2.0 | 6.0 | 0.00 | 0.00 | 0.00 | 64 | 1010.2 |
| 20260504045504 | 50 | 214 | 2.0 | 6.0 | 0.00 | 0.00 | 0.00 | 63 | 1010.3 |
| 20260504044504 | 51 | 221 | 2.0 | 5.0 | 0.00 | 0.00 | 0.00 | 63 | 1010.3 |
| 20260504044004 | 51 | 221 | 2.0 | 5.0 | 0.00 | 0.00 | 0.00 | 63 | 1010.3 |
| 20260504043504 | 51 | 222 | 3.0 | 7.0 | 0.00 | 0.00 | 0.00 | 63 | 1010.3 |
| 20260504043004 | 51 | 222 | 3.0 | 7.0 | 0.00 | 0.00 | 0.00 | 63 | 1010.3 |
| 20260504042504 | 51 | 214 | 2.0 | 6.0 | 0.00 | 0.00 | 0.00 | 64 | 1010.3 |
| 20260504042004 | 51 | 219 | 2.0 | 5.0 | 0.00 | 0.00 | 0.00 | 63 | 1010.4 |
| 20260504041504 | 51 | 219 | 3.0 | 5.0 | 0.00 | 0.00 | 0.00 | 63 | 1010.4 |
| 20260504041004 | 51 | 221 | 3.0 | 7.0 | 0.00 | 0.00 | 0.00 | 63 | 1010.5 |
| 20260504040504 | 51 | 228 | 3.0 | 10.0 | 0.00 | 0.00 | 0.00 | 63 | 1010.5 |
| 20260504040009 | 51 | 233 | 2.0 | 10.0 | 0.00 | 0.00 | 0.00 | 63 | 1010.5 |
| 20260504035504 | 51 | 230 | 2.0 | 5.0 | 0.00 | 0.00 | 0.00 | 63 | 1010.6 |
| 20260504035004 | 51 | 230 | 2.0 | 5.0 | 0.00 | 0.00 | 0.00 | 62 | 1010.7 |
| 20260504034503 | 51 | 242 | 2.0 | 4.0 | 0.00 | 0.00 | 0.00 | 62 | 1010.7 |
| 20260504034004 | 51 | 244 | 1.0 | 3.0 | 0.00 | 0.00 | 0.00 | 62 | 1010.7 |
| 20260504033504 | 51 | 235 | 2.0 | 5.0 | 0.00 | 0.00 | 0.00 | 62 | 1010.8 |
| 20260504033004 | 51 | 225 | 2.0 | 5.0 | 0.00 | 0.00 | 0.00 | 62 | 1010.7 |
| 20260504032503 | 51 | 219 | 1.0 | 3.0 | 0.00 | 0.00 | 0.00 | 62 | 1010.8 |
| 20260504032005 | 51 | 215 | 2.0 | 5.0 | 0.00 | 0.00 | 0.00 | 62 | 1010.8 |
| 20260504031504 | 51 | 216 | 2.0 | 5.0 | 0.00 | 0.00 | 0.00 | 62 | 1010.8 |
| 20260504031005 | 51 | 219 | 2.0 | 5.0 | 0.00 | 0.00 | 0.00 | 61 | 1010.9 |
| 20260504030504 | 51 | 217 | 3.0 | 7.0 | 0.00 | 0.00 | 0.00 | 61 | 1011.0 |
| 20260504030005 | 51 | 216 | 2.0 | 7.0 | 0.00 | 0.00 | 0.00 | 61 | 1011.0 |
| 20260504025503 | 51 | 227 | 2.0 | 8.0 | 0.00 | 0.00 | 0.00 | 61 | 1011.1 |
| 20260504025005 | 51 | 237 | 2.0 | 8.0 | 0.00 | 0.00 | 0.00 | 61 | 1011.1 |
| 20260504024503 | 51 | 259 | 1.0 | 4.0 | 0.00 | 0.00 | 0.00 | 62 | 1011.1 |
| 20260504024004 | 51 | 255 | 2.0 | 4.0 | 0.00 | 0.00 | 0.00 | 61 | 1011.2 |
| 20260504023503 | 51 | 241 | 3.0 | 5.0 | 0.00 | 0.00 | 0.00 | 60 | 1011.3 |
| 20260504022504 | 51 | 237 | 3.0 | 8.0 | 0.00 | 0.00 | 0.00 | 60 | 1011.3 |
| 20260504022004 | 52 | 234 | 3.0 | 8.0 | 0.00 | 0.00 | 0.00 | 59 | 1011.3 |
| 20260504021504 | 52 | 246 | 3.0 | 6.0 | 0.00 | 0.00 | 0.00 | 59 | 1011.3 |
| 20260504021005 | 52 | 241 | 2.0 | 6.0 | 0.00 | 0.00 | 0.00 | 58 | 1011.3 |
| 20260504020504 | 52 | 227 | 3.0 | 6.0 | 0.00 | 0.00 | 0.00 | 57 | 1011.3 |
| 20260504020004 | 52 | 248 | 3.0 | 10.0 | 0.00 | 0.00 | 0.00 | 56 | 1011.3 |
| 20260504015503 | 52 | 244 | 4.0 | 10.0 | 0.00 | 0.00 | 0.00 | 55 | 1011.2 |
| 20260504014503 | 52 | 221 | 1.0 | 3.0 | 0.00 | 0.00 | 0.00 | 54 | 1011.0 |
| 20260504013503 | 53 | 221 | 1.0 | 3.0 | 0.00 | 0.00 | 0.00 | 54 | 1010.7 |
| 20260504013004 | 53 | 221 | 0.0 | 3.0 | 0.00 | 0.00 | 0.00 | 53 | 1010.6 |
| 20260504012504 | 53 | 217 | 1.0 | 2.0 | 0.00 | 0.00 | 0.00 | 53 | 1010.6 |
| 20260504012005 | 54 | 218 | 1.0 | 3.0 | 0.00 | 0.00 | 0.00 | 52 | 1010.5 |
| 20260504011004 | 54 | 218 | 1.0 | 3.0 | 0.00 | 0.00 | 0.00 | 51 | 1010.7 |
| 20260504010504 | 54 | 217 | 1.0 | 3.0 | 0.00 | 0.00 | 0.00 | 51 | 1010.6 |
| 20260504010005 | 54 | 218 | 1.0 | 3.0 | 0.00 | 0.00 | 0.00 | 50 | 1010.6 |
| 20260504005004 | 55 | 230 | 2.0 | 4.0 | 0.00 | 0.00 | 0.00 | 48 | 1010.6 |
| 20260504004504 | 55 | 236 | 2.0 | 4.0 | 0.00 | 0.00 | 0.00 | 48 | 1010.6 |
| 20260504004004 | 56 | 239 | 2.0 | 4.0 | 0.00 | 0.00 | 0.00 | 48 | 1010.6 |
| 20260504003503 | 56 | 241 | 1.0 | 3.0 | 0.00 | 0.00 | 0.00 | 48 | 1010.6 |
| 20260504002004 | 56 | 233 | 2.0 | 4.0 | 0.00 | 0.00 | 0.00 | 46 | 1010.6 |
| 20260504001504 | 56 | 223 | 2.0 | 5.0 | 0.00 | 0.00 | 0.00 | 45 | 1010.6 |
| 20260504000504 | 57 | 224 | 3.0 | 8.0 | 0.00 | 0.00 | 0.00 | 45 | 1010.6 |
| 20260504000005 | 57 | 227 | 3.0 | 8.0 | 0.00 | 0.00 | 0.00 | 45 | 1010.6 |
| 20260503235504 | 57 | 228 | 4.0 | 11.0 | 0.00 | 0.00 | 0.00 | 45 | 1010.6 |
| 20260503235005 | 57 | 227 | 4.0 | 11.0 | 0.00 | 0.00 | 0.00 | 44 | 1010.6 |
| 20260503234504 | 57 | 231 | 4.0 | 11.0 | 0.00 | 0.00 | 0.00 | 45 | 1010.7 |
| 20260503234005 | 58 | 229 | 3.0 | 11.0 | 0.00 | 0.00 | 0.00 | 43 | 1010.7 |
| 20260503233504 | 58 | 231 | 3.0 | 10.0 | 0.00 | 0.00 | 0.00 | 43 | 1010.6 |
| 20260503233005 | 58 | 227 | 4.0 | 10.0 | 0.00 | 0.00 | 0.00 | 43 | 1010.8 |
| 20260503232504 | 58 | 221 | 3.0 | 9.0 | 0.00 | 0.00 | 0.00 | 43 | 1010.8 |
| 20260503231004 | 58 | 230 | 3.0 | 9.0 | 0.00 | 0.00 | 0.00 | 43 | 1010.8 |
| 20260503230504 | 58 | 229 | 3.0 | 9.0 | 0.00 | 0.00 | 0.00 | 42 | 1010.8 |
| 20260503230005 | 58 | 234 | 3.0 | 8.0 | 0.00 | 0.00 | 0.00 | 43 | 1010.8 |
| 20260503225504 | 58 | 228 | 3.0 | 8.0 | 0.00 | 0.00 | 0.00 | 43 | 1010.9 |
| 20260503225004 | 58 | 230 | 4.0 | 10.0 | 0.00 | 0.00 | 0.00 | 43 | 1010.9 |
| 20260503224504 | 58 | 239 | 4.0 | 11.0 | 0.00 | 0.00 | 0.00 | 42 | 1010.9 |
| 20260503224004 | 58 | 236 | 4.0 | 11.0 | 0.00 | 0.00 | 0.00 | 42 | 1010.9 |
| 20260503223503 | 58 | 228 | 4.0 | 9.0 | 0.00 | 0.00 | 0.00 | 43 | 1011.0 |
| 20260503222504 | 59 | 233 | 4.0 | 9.0 | 0.00 | 0.00 | 0.00 | 42 | 1011.1 |
| 20260503222004 | 59 | 239 | 3.0 | 9.0 | 0.00 | 0.00 | 0.00 | 42 | 1011.1 |
| 20260503221504 | 59 | 260 | 3.0 | 9.0 | 0.00 | 0.00 | 0.00 | 42 | 1011.1 |
| 20260503221005 | 59 | 248 | 4.0 | 13.0 | 0.00 | 0.00 | 0.00 | 41 | 1011.1 |
| 20260503220504 | 59 | 246 | 4.0 | 13.0 | 0.00 | 0.00 | 0.00 | 41 | 1010.9 |
| 20260503220005 | 60 | 266 | 3.0 | 8.0 | 0.00 | 0.00 | 0.00 | 41 | 1011.0 |
| 20260503215504 | 60 | 263 | 3.0 | 10.0 | 0.00 | 0.00 | 0.00 | 41 | 1011.1 |
| 20260503215004 | 60 | 254 | 3.0 | 11.0 | 0.00 | 0.00 | 0.00 | 41 | 1011.2 |
| 20260503214504 | 60 | 240 | 3.0 | 11.0 | 0.00 | 0.00 | 0.00 | 41 | 1011.1 |
| 20260503214004 | 60 | 239 | 4.0 | 13.0 | 0.00 | 0.00 | 0.00 | 41 | 1011.1 |
| 20260503213503 | 60 | 237 | 3.0 | 13.0 | 0.00 | 0.00 | 0.00 | 41 | 1011.1 |
| 20260503213004 | 60 | 239 | 5.0 | 12.0 | 0.00 | 0.00 | 0.00 | 39 | 1011.1 |
| 20260503212504 | 60 | 243 | 4.0 | 12.0 | 0.00 | 0.00 | 0.00 | 40 | 1011.0 |
| 20260503212005 | 60 | 234 | 4.0 | 10.0 | 0.00 | 0.00 | 0.00 | 39 | 1011.1 |
| 20260503211504 | 61 | 237 | 5.0 | 12.0 | 0.00 | 0.00 | 0.00 | 37 | 1011.1 |
| 20260503211005 | 61 | 256 | 5.0 | 15.0 | 0.00 | 0.00 | 0.00 | 39 | 1011.1 |
| 20260503210005 | 61 | 247 | 4.0 | 14.0 | 0.00 | 0.00 | 0.00 | 41 | 1011.0 |
| 20260503205503 | 61 | 245 | 5.0 | 14.0 | 0.00 | 0.00 | 0.00 | 41 | 1011.1 |
| 20260503205004 | 61 | 239 | 4.0 | 12.0 | 0.00 | 0.00 | 0.00 | 40 | 1011.1 |
| 20260503204504 | 61 | 254 | 4.0 | 15.0 | 0.00 | 0.00 | 0.00 | 40 | 1011.1 |
| 20260503204005 | 61 | 244 | 4.0 | 15.0 | 0.00 | 0.00 | 0.00 | 40 | 1011.2 |
| 20260503203504 | 61 | 231 | 4.0 | 10.0 | 0.00 | 0.00 | 0.00 | 39 | 1011.0 |
| 20260503203005 | 61 | 241 | 4.0 | 10.0 | 0.00 | 0.00 | 0.00 | 41 | 1011.2 |
| 20260503202504 | 61 | 248 | 4.0 | 10.0 | 0.00 | 0.00 | 0.00 | 40 | 1011.3 |
| 20260503202004 | 61 | 242 | 4.0 | 10.0 | 0.00 | 0.00 | 0.00 | 39 | 1011.3 |
| 20260503201004 | 61 | 240 | 4.0 | 14.0 | 0.00 | 0.00 | 0.00 | 41 | 1011.4 |
| 20260503195504 | 62 | 253 | 4.0 | 12.0 | 0.00 | 0.00 | 0.00 | 40 | 1011.8 |
| 20260503195005 | 62 | 251 | 5.0 | 14.0 | 0.00 | 0.00 | 0.00 | 39 | 1011.8 |
| 20260503194504 | 62 | 249 | 5.0 | 14.0 | 0.00 | 0.00 | 0.00 | 39 | 1011.9 |
| 20260503194005 | 62 | 236 | 5.0 | 14.0 | 0.00 | 0.00 | 0.00 | 40 | 1012.1 |
| 20260503193504 | 62 | 236 | 5.0 | 14.0 | 0.00 | 0.00 | 0.00 | 37 | 1012.1 |
| 20260503193005 | 62 | 236 | 5.0 | 12.0 | 0.00 | 0.00 | 0.00 | 39 | 1012.2 |
| 20260503192504 | 63 | 242 | 5.0 | 12.0 | 0.00 | 0.00 | 0.00 | 38 | 1012.2 |
| 20260503192004 | 63 | 245 | 5.0 | 11.0 | 0.00 | 0.00 | 0.00 | 39 | 1012.4 |
| 20260503191504 | 63 | 229 | 5.0 | 12.0 | 0.00 | 0.00 | 0.00 | 36 | 1012.4 |
| 20260503191005 | 64 | 249 | 5.0 | 15.0 | 0.00 | 0.00 | 0.00 | 36 | 1012.2 |
| 20260503190504 | 63 | 281 | 6.0 | 16.0 | 0.00 | 0.00 | 0.00 | 37 | 1012.4 |
| 20260503190005 | 63 | 290 | 6.0 | 19.0 | 0.00 | 0.00 | 0.00 | 36 | 1012.6 |
| 20260503185503 | 63 | 288 | 5.0 | 19.0 | 0.00 | 0.00 | 0.00 | 35 | 1012.5 |
| 20260503185004 | 63 | 256 | 4.0 | 14.0 | 0.00 | 0.00 | 0.00 | 38 | 1012.6 |
| 20260503184005 | 63 | 290 | 5.0 | 15.0 | 0.00 | 0.00 | 0.00 | 36 | 1012.7 |
| 20260503183504 | 62 | 288 | 5.0 | 15.0 | 0.00 | 0.00 | 0.00 | 40 | 1012.8 |
| 20260503182504 | 61 | 277 | 5.0 | 16.0 | 0.00 | 0.01 | 0.00 | 43 | 1013.0 |
| 20260503182005 | 61 | 265 | 5.0 | 16.0 | 0.00 | 0.01 | 0.00 | 40 | 1012.9 |
| 20260503181505 | 61 | 233 | 5.0 | 14.0 | 0.00 | 0.01 | 0.00 | 40 | 1012.9 |
| 20260503181005 | 61 | 247 | 6.0 | 15.0 | 0.00 | 0.01 | 0.00 | 40 | 1012.9 |
| 20260503180504 | 61 | 239 | 6.0 | 15.0 | 0.00 | 0.01 | 0.00 | 39 | 1012.9 |
| 20260503180005 | 62 | 232 | 5.0 | 14.0 | 0.00 | 0.01 | 0.00 | 38 | 1013.0 |
| 20260503175503 | 62 | 247 | 4.0 | 13.0 | 0.00 | 0.01 | 0.00 | 39 | 1013.1 |
| 20260503175004 | 63 | 256 | 4.0 | 10.0 | 0.00 | 0.01 | 0.00 | 38 | 1013.1 |
| 20260503174504 | 64 | 267 | 4.0 | 12.0 | 0.00 | 0.01 | 0.00 | 38 | 1013.3 |
| 20260503173503 | 64 | 249 | 6.0 | 15.0 | 0.00 | 0.01 | 0.00 | 39 | 1013.4 |
| 20260503173005 | 64 | 276 | 4.0 | 12.0 | 0.00 | 0.01 | 0.00 | 41 | 1013.3 |
| 20260503172004 | 64 | 236 | 4.0 | 13.0 | 0.00 | 0.01 | 0.00 | 38 | 1013.6 |
| 20260503171504 | 64 | 234 | 4.0 | 11.0 | 0.00 | 0.01 | 0.00 | 40 | 1013.6 |
| 20260503171005 | 63 | 268 | 5.0 | 16.0 | 0.00 | 0.01 | 0.00 | 41 | 1013.6 |
| 20260503170505 | 63 | 270 | 5.0 | 16.0 | 0.00 | 0.01 | 0.00 | 40 | 1013.8 |
| 20260503151004 | 54 | 237 | 4.0 | 15.0 | 0.00 | 0.01 | 0.00 | 49 | 1014.7 |
| 20260503150503 | 54 | 224 | 3.0 | 10.0 | 0.00 | 0.01 | 0.00 | 48 | 1014.8 |